Regional Weather Roundup
Issued by NWS

Home | Current Version | Previous Version | Text Only | Print | Product List | Glossary On
Versions: 1 2 3 4 5 6 7 8 9 10 11 12 13 14 15 16 17 18 19 20 21 22 23 24 25 26 27 28 29 30 31 32 33 34 35 36 37 38 39 40 41 42 43 44 45 46 47 48 49 50
000
ASCA44 KEWX 270111
RWRMX

LATIN AMERICA AND CARIBBEAN REGIONAL WEATHER ROUNDUP
NATIONAL WEATHER SERVICE AUSTIN/SAN ANTONIO TX
800 PM CDT MON JUN 26 2017

NOTE: "FAIR" INDICATED FEW OR NO CLOUDS BELOW 12,000 FEET WITH NO
SIGNIFICANT WEATHER AND/OR OBSTRUCTIONS TO VISIBILITY.

BAJA CALIFORNIA

CITY           SKY/WX    TMP DP  RH WIND       PRES   REMARKS
LORETO         MOSUNNY   90  77  66 S9        29.75S HX 102
LA PAZ         SUNNY     91  55  29 SW8       29.82R
MEXICALI       SUNNY    113  34   6 NW14      29.71F HX 105
S.J. DEL CABO  MOSUNNY   88  52  29 E17       29.83R
TIJUANA        SUNNY     82  57  42 W12       29.92F

NORTHWESTERN MEXICO

CITY           SKY/WX    TMP DP  RH WIND       PRES   REMARKS
CULIACAN       PTSUNNY   91  68  46 S12       29.82S HX  95
DURANGO        CLOUDY    72  57  60 NE6       30.21R
GUAYMAS        SUNNY     90  77  66 S10       29.73F HX 102
HERMOSILLO     MOSUNNY  104  66  29 SW13      29.80R HX 109
CD. JUAREZ     MOSUNNY   91  54  27 SE7       30.06F
LOS MOCHIS     MOSUNNY   88  64  45 SW8       29.84R
OBREGON        MOSUNNY   93  64  38 S7        29.77F HX  95

NORTHEASTERN MEXICO

CITY           SKY/WX    TMP DP  RH WIND       PRES   REMARKS
CHIHUAHUA      MOSUNNY   88  46  23 E5        30.09F
MATAMOROS      MOCLDY    82  75  78 E12       29.92S
MONCLOVA         N/A    N/A N/A N/A MISG        N/A
MONTERREY      MOCLDY    90  61  37 SE9       29.92R
NUEVO LAREDO   MOCLDY    86  72  62 E18       29.93R HX  92
PIEDRAS NEGRAS   N/A    N/A N/A N/A MISG        N/A
REYNOSA        MOCLDY    82  68  61 E9G21     29.92S
SALTILLO       MOCLDY    77  59  53 N17       30.17S
TORREON        PTCLDY    91  50  24 NE3       30.00S
CD. VICTORIA   CLOUDY    82  68  61 SW2       29.96R

WESTERN MEXICO

CITY           SKY/WX    TMP DP  RH WIND       PRES   REMARKS
AGUASCALIENTES LGT RAIN  61  59  94 NW7       30.28R
COLIMA         DRIZZLE   75  72  88 SW12      30.00R
DEL BAJIO      LGT RAIN  63  59  88 N13       30.31R
GUADALAJARA    CLOUDY    73  61  64 NE7       30.14R
MANZANILLO     MOCLDY    82  75  78 SE12      29.83R
MAZATLAN       CLOUDY    84  72  65 W10       29.84F
P. VALLARTA    LGT RAIN  79  79 100 SW8       29.86R
URUAPAN          N/A    N/A N/A N/A MISG        N/A
ZACATECAS      MOCLDY    70  52  52 S12       30.26R

CENTRAL MEXICO

CITY           SKY/WX    TMP DP  RH WIND       PRES   REMARKS
CUERNAVACA       N/A    N/A N/A N/A MISG        N/A
MEXICO CITY    LGT RAIN  59  55  88 W5        30.36R
MORELIA        CLOUDY    66  61  82 E5        30.22R
POZA RICA        N/A    N/A N/A N/A MISG        N/A
PUEBLA         LGT RAIN  57  55  94 NE6       30.33S
QUERETARO      LGT RAIN  59  59 100 SE5       30.32R
S. LUIS POTOSI MOCLDY    73  50  43 E8        30.20R
TAMPICO        MOCLDY    81  73  78 E14       29.92S
TOLUCA         CLOUDY    61  50  67 NW9       30.36R

SOUTHERN MEXICO

CITY           SKY/WX    TMP DP  RH WIND       PRES   REMARKS
ACAPULCO       CLOUDY    84  77  79 SW6       29.83R HX  94
B. DE HUATULCO   N/A    N/A N/A N/A MISG        N/A
OAXACA         CLOUDY    68  59  73 N9        30.20R
P. ESCONDIDO   LGT RAIN  81  73  78 N8        29.96R
VERACRUZ       MOCLDY    81  75  83 N8        29.94R
ZIHUATANEJO    PTCLDY    86  75  70 W6        29.85R HX  95

YUCATAN PENINSULA

CITY           SKY/WX    TMP DP  RH WIND       PRES   REMARKS
CAMPECHE       MOCLDY    77  75  94 W9        29.92R
CANCUN         MOCLDY    82  77  83 E6        29.98R HX  91
CHETUMAL       PTCLDY    81  77  89 SE9       29.94R
CD. DEL CARMEN CLOUDY   N/A N/A N/A NE12      29.91R
COZUMEL        PTCLDY    81  77  89 SE5       29.96R
MERIDA         MOCLDY    77  73  88 N5        29.94R
MINATITLAN     MOCLDY    82  73  74 N12       29.88R
TAPACHULA      CLOUDY    77  75  94 E5        29.86S
TUX. GUTIERREZ MOCLDY    81  70  69 NW7       29.91R
VILLAHERMOSA   MOCLDY    84  77  79 N6        29.91R HX  94

CENTRAL AMERICA

CITY           SKY/WX    TMP DP  RH WIND       PRES   REMARKS
BELIZE CITY    PTCLDY    81  77  89 NE7       29.91F

CARIBBEAN

CITY           SKY/WX    TMP DP  RH WIND       PRES   REMARKS
ARUBA          PTCLDY    82  77  83 E18       29.89R HX  91
KINGSTON       PTCLDY    84  75  74 SE20      29.94R HX  92
NASSAU         MOCLDY    86  73  66 E9        30.03R HX  93
SAN JUAN       PTCLDY    82  75  78 E9        30.03R
SANTO DOMINGO  PTCLDY    81  77  89 NE5       30.00R
ST. CROIX      PTCLDY    82  73  74 NE9       30.02R
ST. KITTS      PTCLDY    81  75  83 NE13      30.00S
ST. MAARTEN    PTCLDY    82  77  83 E9        30.00S HX  91
ST. THOMAS     CLEAR     84  75  74 E10       30.02R HX  92

$$




USA.gov is the U.S. government's official web portal to all federal, state and local government web resources and services.